Temp
-13 -15 -17 -19 -20 -20 -20 -21 -21 -20 -20 -20 -20 -22 -23 -23 -23 -21 -19 -19 -17 -15 -14 -13 -12 -11 -11 -10 -10 -9 -9 -9 -9 -9 -9 -9 -9 -9 -9 -9 -9 -9 -9 -9 -9
-15 -16 -17 -19 -20 -20 -21 -21 -21 -21 -21 -21 -21 -23 -23 -23 -23 -22 -20 -20 -19 -18 -16 -15 -13 -12 -11 -11 -10 -10 -9 -9 -9 -10 -9 -9 -9 -9 -9 -9 -9 -9 -9 -9 -9
-16 -16 -17 -18 -20 -21 -21 -21 -21 -21 -21 -21 -22 -23 -23 -23 -23 -22 -21 -20 -19 -18 -17 -16 -15 -13 -12 -12 -11 -10 -10 -10 -10 -10 -9 -9 -10 -10 -10 -10 -10 -10 -9 -9 -9
-16 -16 -17 -18 -19 -21 -21 -21 -21 -21 -21 -22 -23 -24 -24 -24 -23 -23 -22 -20 -19 -18 -18 -17 -16 -14 -13 -12 -11 -11 -10 -10 -10 -10 -9 -10 -10 -10 -10 -10 -10 -10 -9 -9 -9
-16 -16 -17 -18 -19 -20 -21 -22 -22 -22 -22 -22 -23 -23 -24 -23 -23 -23 -22 -20 -20 -18 -18 -18 -16 -15 -13 -12 -12 -11 -11 -11 -10 -10 -10 -10 -10 -10 -10 -10 -10 -10 -9 -9 -9
-16 -16 -17 -18 -19 -20 -21 -21 -21 -22 -22 -22 -23 -23 -23 -23 -22 -22 -21 -21 -20 -18 -17 -18 -17 -16 -15 -14 -13 -12 -12 -11 -11 -10 -10 -10 -10 -10 -10 -10 -10 -10 -10 -10 -10
-15 -16 -17 -18 -19 -19 -20 -21 -22 -22 -22 -22 -22 -23 -22 -22 -21 -21 -21 -20 -19 -18 -18 -17 -17 -17 -15 -14 -14 -13 -12 -12 -11 -11 -10 -10 -11 -10 -10 -10 -10 -10 -10 -10 -10
-16 -16 -16 -18 -19 -20 -20 -21 -21 -21 -22 -22 -22 -22 -22 -21 -21 -21 -21 -20 -20 -18 -18 -18 -17 -17 -16 -15 -15 -14 -13 -12 -11 -11 -10 -11 -11 -11 -10 -10 -10 -10 -10 -10 -10
-16 -16 -17 -17 -19 -20 -20 -21 -21 -21 -22 -22 -22 -21 -22 -22 -21 -21 -20 -21 -20 -19 -19 -18 -18 -16 -16 -16 -15 -14 -12 -12 -12 -10 -11 -11 -11 -11 -10 -10 -10 -10 -10 -10 -10
-16 -17 -17 -17 -18 -19 -20 -21 -21 -22 -22 -22 -22 -22 -22 -22 -21 -21 -21 -20 -20 -20 -19 -18 -19 -17 -17 -16 -15 -13 -12 -12 -12 -11 -11 -12 -11 -11 -11 -11 -10 -10 -10 -10 -10
-16 -17 -17 -18 -18 -19 -19 -21 -21 -21 -22 -22 -22 -22 -22 -22 -21 -21 -20 -21 -20 -20 -19 -18 -18 -17 -16 -15 -16 -14 -13 -13 -12 -12 -12 -12 -12 -12 -11 -11 -11 -11 -11 -10 -10
-17 -17 -17 -18 -18 -19 -19 -20 -21 -22 -22 -22 -22 -22 -22 -22 -21 -21 -20 -20 -20 -20 -20 -20 -19 -18 -17 -17 -16 -15 -14 -13 -13 -13 -12 -12 -12 -12 -12 -12 -11 -11 -11 -10 -10
-16 -17 -17 -18 -19 -19 -19 -20 -21 -21 -21 -22 -22 -22 -22 -22 -21 -21 -21 -21 -21 -20 -20 -19 -20 -19 -18 -17 -16 -16 -15 -14 -14 -13 -13 -12 -12 -12 -12 -12 -11 -11 -11 -11 -10
-16 -17 -17 -18 -18 -19 -19 -19 -20 -21 -21 -21 -22 -22 -22 -22 -21 -21 -22 -21 -20 -20 -19 -19 -19 -19 -18 -17 -16 -16 -16 -15 -15 -14 -14 -13 -12 -12 -12 -12 -11 -11 -11 -11 -11
-16 -16 -17 -17 -18 -19 -19 -19 -19 -20 -20 -21 -21 -22 -22 -22 -22 -21 -22 -22 -21 -20 -20 -19 -20 -19 -18 -18 -17 -16 -16 -16 -15 -15 -14 -14 -13 -12 -12 -12 -12 -11 -11 -11 -11
-16 -16 -17 -17 -18 -19 -19 -19 -19 -20 -20 -20 -21 -22 -22 -22 -22 -21 -21 -21 -20 -20 -20 -20 -19 -19 -19 -18 -17 -17 -17 -16 -16 -15 -15 -14 -13 -13 -13 -12 -12 -12 -11 -11 -11
-16 -16 -16 -17 -18 -18 -19 -19 -19 -19 -20 -20 -20 -21 -21 -21 -21 -21 -21 -20 -20 -20 -20 -19 -20 -19 -19 -18 -18 -17 -17 -16 -16 -15 -14 -14 -14 -13 -13 -12 -12 -12 -11 -11 -11
-16 -16 -16 -17 -17 -18 -18 -19 -19 -19 -19 -19 -20 -20 -21 -21 -20 -20 -20 -20 -19 -20 -20 -19 -20 -20 -19 -18 -18 -17 -17 -16 -15 -14 -14 -14 -14 -13 -13 -12 -12 -12 -11 -11 -10
-16 -16 -16 -16 -17 -18 -18 -19 -19 -19 -19 -20 -19 -20 -20 -20 -20 -20 -19 -19 -20 -20 -20 -20 -20 -19 -19 -18 -18 -17 -17 -17 -16 -15 -15 -14 -14 -13 -13 -12 -12 -11 -11 -11 -11
-15 -16 -16 -16 -16 -17 -18 -18 -18 -19 -19 -19 -20 -19 -19 -20 -20 -20 -20 -20 -19 -19 -19 -19 -20 -20 -19 -19 -18 -17 -17 -17 -16 -15 -15 -14 -14 -13 -12 -12 -11 -11 -11 -11 -11
-15 -16 -16 -16 -16 -17 -17 -18 -18 -18 -19 -19 -19 -19 -19 -19 -19 -19 -19 -19 -19 -19 -19 -19 -19 -20 -20 -19 -18 -18 -17 -16 -16 -15 -14 -14 -13 -12 -12 -12 -11 -11 -11 -11 -11
-15 -15 -16 -16 -16 -16 -17 -18 -18 -18 -18 -19 -20 -19 -19 -19 -19 -19 -19 -19 -19 -20 -19 -19 -20 -20 -19 -19 -19 -18 -17 -16 -16 -15 -14 -13 -13 -12 -12 -12 -11 -11 -11 -11 -12
-15 -15 -16 -16 -16 -16 -16 -17 -17 -18 -19 -19 -19 -20 -19 -19 -19 -20 -19 -19 -19 -20 -19 -19 -20 -20 -20 -19 -19 -18 -17 -16 -15 -15 -14 -13 -13 -12 -12 -12 -12 -12 -12 -12 -12
-15 -15 -15 -16 -16 -16 -16 -16 -17 -18 -18 -19 -19 -19 -19 -19 -19 -19 -19 -19 -19 -19 -19 -19 -19 -19 -19 -19 -18 -18 -17 -16 -15 -14 -14 -13 -13 -13 -12 -12 -12 -13 -12 -12 -12
-15 -15 -15 -16 -16 -16 -16 -16 -16 -17 -18 -18 -18 -19 -19 -19 -19 -19 -19 -19 -19 -19 -19 -19 -19 -19 -19 -18 -18 -18 -17 -16 -15 -14 -14 -13 -13 -13 -13 -13 -13 -13 -12 -13 -12
-16 -16 -15 -15 -16 -15 -16 -16 -16 -16 -17 -17 -18 -18 -18 -18 -19 -19 -18 -19 -19 -19 -18 -19 -19 -19 -19 -18 -18 -17 -17 -16 -15 -14 -13 -13 -13 -14 -13 -13 -13 -13 -13 -13 -13
-15 -16 -16 -16 -15 -15 -16 -16 -16 -16 -16 -16 -17 -17 -17 -18 -18 -18 -18 -19 -19 -18 -18 -18 -18 -18 -18 -18 -17 -16 -16 -15 -15 -15 -14 -14 -14 -13 -13 -13 -13 -13 -13 -13 -13
Height
5709 5696 5682 5674 5669 5664 5659 5653 5648 5641 5634 5627 5621 5617 5615 5616 5618 5628 5643 5658 5666 5681 5694 5708 5723 5736 5748 5760 5770 5780 5789 5800 5809 5815 5823 5828 5835 5841 5847 5852 5856 5859 5862 5866 5868
5700 5687 5677 5670 5665 5659 5653 5646 5639 5632 5625 5617 5610 5606 5606 5606 5609 5617 5631 5642 5655 5668 5681 5696 5709 5724 5737 5749 5760 5771 5784 5796 5803 5810 5819 5825 5833 5839 5844 5849 5852 5856 5859 5863 5865
5695 5683 5674 5667 5660 5653 5647 5640 5633 5624 5616 5607 5600 5597 5598 5598 5603 5612 5619 5634 5647 5659 5668 5684 5696 5711 5727 5739 5753 5765 5778 5788 5796 5804 5813 5820 5828 5835 5840 5844 5848 5851 5855 5859 5862
5690 5680 5673 5665 5655 5648 5640 5633 5626 5617 5608 5599 5594 5591 5593 5594 5600 5605 5613 5626 5640 5651 5659 5671 5686 5702 5715 5729 5744 5758 5769 5780 5788 5798 5807 5814 5822 5829 5835 5839 5842 5848 5853 5856 5858
5687 5678 5670 5661 5651 5642 5635 5627 5620 5612 5603 5595 5590 5588 5589 5590 5594 5599 5608 5620 5632 5647 5654 5665 5679 5694 5708 5721 5736 5749 5761 5773 5781 5791 5800 5809 5816 5824 5830 5834 5840 5845 5849 5852 5854
5686 5676 5667 5658 5649 5639 5631 5624 5616 5608 5601 5594 5589 5587 5586 5587 5591 5600 5605 5617 5631 5644 5648 5659 5672 5686 5702 5714 5729 5742 5754 5767 5774 5783 5794 5803 5810 5819 5825 5830 5835 5840 5845 5848 5850
5685 5675 5666 5657 5646 5637 5628 5621 5613 5606 5601 5596 5593 5589 5588 5591 5595 5600 5605 5616 5623 5638 5644 5655 5666 5679 5695 5706 5721 5735 5747 5759 5769 5778 5787 5797 5805 5813 5819 5825 5831 5835 5840 5844 5847
5685 5675 5665 5655 5645 5635 5626 5619 5611 5605 5601 5597 5595 5593 5593 5593 5597 5599 5607 5613 5619 5630 5640 5646 5657 5673 5689 5701 5714 5728 5740 5752 5764 5771 5781 5791 5801 5808 5814 5820 5826 5832 5836 5839 5843
5685 5675 5665 5655 5644 5635 5625 5617 5611 5605 5602 5599 5596 5596 5596 5598 5599 5603 5610 5612 5619 5630 5636 5644 5651 5667 5684 5696 5709 5720 5734 5746 5758 5767 5776 5786 5795 5803 5810 5816 5822 5828 5832 5835 5838
5684 5675 5665 5656 5646 5636 5626 5617 5611 5605 5602 5600 5598 5599 5598 5600 5602 5604 5612 5615 5619 5630 5637 5641 5650 5663 5679 5690 5704 5720 5731 5742 5752 5762 5771 5781 5790 5798 5805 5811 5817 5822 5828 5831 5833
5684 5675 5665 5656 5645 5636 5626 5617 5612 5607 5603 5602 5598 5598 5600 5601 5606 5609 5613 5617 5622 5628 5637 5642 5652 5667 5686 5697 5706 5718 5728 5738 5747 5757 5769 5778 5785 5792 5799 5806 5812 5818 5821 5824 5828
5685 5676 5666 5656 5646 5636 5627 5619 5611 5608 5605 5603 5602 5601 5601 5603 5606 5610 5614 5619 5625 5630 5639 5648 5656 5668 5680 5692 5703 5714 5725 5736 5746 5754 5765 5774 5781 5787 5795 5801 5806 5811 5816 5820 5824
5685 5676 5667 5657 5647 5638 5629 5621 5612 5610 5607 5605 5602 5600 5601 5604 5606 5610 5614 5620 5625 5636 5641 5646 5655 5664 5677 5690 5702 5712 5722 5733 5745 5753 5762 5770 5777 5784 5791 5796 5802 5807 5811 5815 5819
5686 5677 5667 5658 5648 5640 5631 5623 5616 5613 5610 5608 5605 5602 5603 5604 5608 5611 5615 5623 5630 5637 5645 5649 5657 5666 5677 5689 5701 5712 5721 5729 5741 5750 5759 5766 5773 5780 5786 5792 5797 5802 5807 5811 5814
5687 5678 5669 5659 5650 5642 5635 5626 5620 5618 5615 5613 5608 5607 5607 5608 5609 5612 5617 5624 5631 5638 5644 5651 5657 5666 5678 5692 5701 5711 5720 5730 5737 5744 5753 5761 5769 5776 5782 5787 5793 5798 5803 5807 5809
5688 5680 5672 5662 5653 5645 5637 5631 5626 5624 5620 5618 5613 5611 5611 5609 5612 5616 5623 5627 5635 5640 5646 5652 5657 5666 5676 5688 5700 5709 5717 5726 5734 5742 5748 5756 5762 5771 5777 5783 5788 5793 5798 5803 5804
5690 5683 5674 5665 5657 5648 5640 5636 5633 5627 5626 5622 5619 5617 5617 5617 5619 5622 5628 5633 5639 5644 5648 5653 5660 5668 5676 5686 5696 5705 5713 5721 5730 5736 5744 5752 5758 5766 5773 5779 5784 5789 5794 5797 5799
5692 5685 5677 5669 5660 5652 5644 5640 5637 5632 5629 5627 5624 5623 5623 5624 5627 5630 5633 5637 5643 5648 5652 5656 5662 5667 5675 5686 5697 5704 5714 5722 5726 5733 5741 5750 5753 5762 5770 5776 5780 5785 5788 5791 5793
5695 5688 5681 5672 5664 5656 5649 5643 5640 5636 5633 5631 5630 5628 5628 5630 5632 5634 5640 5644 5646 5649 5654 5659 5664 5669 5677 5687 5696 5704 5712 5720 5727 5735 5743 5748 5755 5763 5768 5773 5777 5780 5783 5785 5788
5696 5690 5683 5676 5669 5662 5654 5649 5644 5640 5637 5635 5634 5633 5632 5633 5636 5638 5641 5643 5647 5652 5656 5661 5665 5671 5676 5685 5693 5704 5711 5719 5725 5733 5738 5745 5753 5759 5765 5769 5772 5775 5778 5780 5782
5697 5691 5686 5679 5673 5667 5660 5654 5648 5644 5642 5640 5638 5637 5637 5637 5637 5639 5643 5645 5647 5652 5657 5662 5667 5673 5678 5684 5693 5701 5709 5718 5724 5731 5737 5745 5752 5757 5760 5765 5768 5772 5774 5775 5776
5698 5693 5688 5683 5678 5671 5665 5659 5654 5649 5645 5643 5642 5641 5641 5642 5642 5643 5644 5646 5648 5652 5657 5662 5667 5672 5679 5684 5692 5699 5708 5715 5722 5731 5736 5742 5749 5752 5757 5761 5765 5767 5769 5769 5771
5700 5695 5690 5685 5681 5675 5670 5665 5660 5654 5649 5646 5645 5645 5645 5645 5647 5647 5648 5650 5651 5654 5658 5663 5667 5672 5678 5686 5691 5699 5706 5714 5722 5728 5734 5740 5746 5750 5753 5757 5760 5761 5762 5764 5765
5702 5697 5692 5687 5683 5679 5674 5670 5665 5660 5655 5651 5649 5648 5647 5648 5649 5651 5652 5653 5654 5656 5660 5663 5667 5674 5682 5689 5693 5699 5706 5713 5720 5727 5733 5738 5742 5746 5749 5751 5753 5755 5757 5757 5758
5702 5698 5694 5689 5685 5682 5678 5673 5669 5665 5661 5657 5654 5652 5651 5651 5652 5654 5656 5656 5657 5660 5663 5666 5670 5675 5680 5687 5693 5699 5704 5710 5716 5723 5729 5734 5738 5741 5744 5747 5748 5749 5750 5751 5751
5702 5699 5695 5691 5688 5684 5681 5677 5674 5670 5667 5663 5659 5656 5655 5655 5656 5658 5660 5661 5663 5664 5666 5669 5673 5676 5682 5688 5693 5699 5704 5709 5714 5721 5726 5730 5734 5738 5740 5742 5742 5742 5743 5743 5742
5701 5699 5696 5693 5690 5686 5683 5681 5678 5675 5672 5669 5666 5663 5661 5661 5660 5662 5664 5666 5667 5669 5671 5673 5676 5679 5684 5688 5693 5700 5705 5710 5714 5718 5722 5726 5732 5731 5735 5735 5735 5736 5736 5737 5737
Wind_Speed
51 53 46 38 32 32 32 34 36 40 40 39 38 36 32 37 48 66 69 62 61 75 78 78 76 72 69 66 63 63 60 54 48 45 42 43 42 41 38 34 30 29 27 23 20
52 51 49 40 33 33 33 33 39 38 36 35 35 32 29 38 41 49 60 58 58 46 73 74 75 74 71 67 65 63 61 53 50 47 43 43 42 41 36 34 32 30 28 25 21
46 47 47 43 34 33 34 37 43 32 36 33 30 28 29 34 36 39 49 55 50 48 55 70 74 75 72 68 65 63 60 55 52 49 44 44 44 43 39 38 35 33 30 25 21
44 44 42 40 36 35 35 40 43 31 33 29 23 23 26 27 31 35 45 49 49 48 46 66 71 75 74 70 66 63 60 56 54 50 47 46 46 46 43 43 38 33 29 25 23
42 42 40 36 34 29 33 35 31 31 29 23 17 13 24 23 25 32 39 44 45 49 51 55 66 73 74 70 66 64 60 57 55 52 49 49 48 48 47 43 40 34 30 27 25
41 42 40 36 33 30 27 27 28 30 23 15 9 7 9 13 23 29 26 41 42 41 45 49 63 71 72 69 67 64 60 57 56 54 51 50 48 48 47 43 39 36 32 28 26
39 41 38 36 33 32 30 30 31 20 17 10 7 2 6 16 13 15 35 39 55 41 40 51 58 70 73 70 67 64 61 57 56 55 53 51 48 46 46 44 42 38 33 30 28
38 43 41 35 33 30 30 31 31 16 14 11 3 5 9 7 11 18 35 42 35 38 19 47 59 68 70 70 67 64 62 60 58 56 53 50 47 46 47 46 42 38 35 32 29
35 40 43 39 37 33 29 27 28 15 10 12 8 2 10 7 9 19 34 36 42 28 21 42 60 71 70 68 67 67 64 62 59 59 55 50 46 45 45 45 41 37 35 32 30
35 41 44 43 41 36 31 24 24 17 11 8 6 5 8 9 5 15 38 36 43 35 21 42 54 70 70 69 68 66 65 62 60 60 56 49 45 44 44 43 40 38 35 33 32
35 42 44 42 44 39 36 25 21 17 7 4 2 2 8 12 8 10 26 33 50 41 20 39 40 63 66 65 63 63 63 61 60 58 53 48 46 45 44 43 39 37 35 34 33
37 43 43 42 42 41 36 31 19 11 10 4 4 5 14 13 17 17 15 32 36 35 29 22 32 57 62 62 62 61 59 59 57 56 52 49 47 46 44 41 39 39 36 35 32
37 38 40 41 41 39 34 32 19 16 9 5 5 6 15 18 20 23 24 40 38 32 24 28 33 54 59 60 61 59 58 56 53 51 48 48 48 45 42 41 39 37 35 32 31
37 38 38 37 38 37 31 30 19 18 12 10 6 5 9 16 14 26 29 43 43 36 34 33 37 51 55 55 57 55 53 51 48 46 46 46 45 43 41 40 38 37 33 31 28
36 38 39 38 35 32 27 27 19 15 14 16 12 5 8 7 16 26 21 27 30 19 24 34 34 50 52 50 52 52 48 46 46 46 44 44 43 41 40 38 36 33 30 27 25
35 37 38 38 34 31 29 25 16 13 13 12 13 11 5 8 18 19 23 24 26 23 21 26 34 43 48 47 47 47 46 43 43 43 44 43 43 40 38 35 32 31 28 22 21
33 36 37 39 34 33 27 19 17 11 10 14 14 11 12 11 18 21 20 30 26 27 22 27 29 37 45 47 44 45 45 43 42 43 46 43 41 38 36 32 30 28 24 22 21
30 33 36 37 37 35 25 19 13 13 15 13 17 14 13 11 18 22 29 25 30 25 24 27 30 41 44 44 41 42 40 41 45 46 44 38 40 36 32 29 27 23 21 20 22
28 29 32 36 37 35 28 21 17 16 16 17 16 18 12 14 18 13 25 23 24 21 26 25 28 39 43 43 39 39 39 38 37 38 34 37 32 26 26 23 21 20 21 22 23
25 27 29 32 35 35 31 27 21 15 13 15 15 15 17 18 16 16 14 11 17 17 21 26 26 35 40 41 41 37 37 36 36 34 33 32 27 24 21 22 23 23 22 23 24
25 24 25 29 32 35 31 26 21 20 15 12 10 10 13 16 19 17 15 15 18 18 25 25 24 29 36 39 40 39 36 35 34 31 29 24 23 21 23 23 22 22 23 24 27
23 23 22 24 27 30 32 27 26 20 16 17 11 9 9 11 13 14 15 14 16 15 20 25 22 27 33 36 38 40 39 38 35 30 27 25 23 24 24 23 22 22 25 28 29
20 21 21 21 22 26 29 30 25 23 20 14 12 10 10 7 10 9 13 15 15 14 18 19 25 28 31 32 37 40 39 37 34 31 29 26 25 23 24 24 24 27 28 28 30
19 19 19 19 20 22 25 27 28 24 22 20 15 11 9 8 9 9 9 10 12 13 17 21 24 26 24 28 34 36 37 36 33 31 28 26 25 26 26 27 28 27 28 30 31
18 17 17 18 17 18 21 24 26 26 22 21 19 16 11 9 8 10 8 10 16 11 17 16 21 25 27 27 29 31 35 37 35 33 31 29 29 28 28 27 27 28 30 31 31
15 17 16 15 16 16 16 19 22 25 25 21 20 18 16 13 11 13 11 11 13 11 15 13 21 25 25 26 27 28 31 35 34 33 31 31 30 25 26 26 30 32 32 33 35
13 15 15 14 14 14 14 14 16 19 22 23 20 19 17 15 14 13 13 12 10 13 14 14 19 20 22 26 26 27 29 31 32 33 31 30 24 29 27 29 32 33 34 33 31
Wind_Direction
348 353 349 327 303 307 302 301 302 298 299 298 295 282 263 242 231 226 225 225 224 219 215 212 211 212 213 216 217 220 221 218 217 217 216 216 215 210 212 212 215 217 214 212 214
1 5 357 333 307 305 306 304 313 305 301 297 291 265 253 241 230 219 221 220 218 216 214 211 209 209 210 212 214 216 219 217 216 217 215 212 212 210 211 217 217 221 218 215 218
7 7 1 351 316 305 306 307 314 307 307 304 294 254 240 239 229 214 212 215 213 212 214 209 207 205 206 208 212 212 215 213 215 216 212 210 207 207 210 215 218 216 216 216 218
10 5 358 354 338 304 303 306 311 312 318 310 295 242 241 239 234 217 208 207 212 211 209 208 206 204 203 204 208 210 210 209 212 214 210 208 205 205 209 216 217 218 220 220 223
8 4 358 350 347 327 313 315 321 323 323 314 294 255 249 247 226 218 203 198 206 204 213 206 205 202 202 200 204 206 208 206 209 211 210 207 207 203 209 215 219 219 221 223 228
5 1 356 349 345 340 334 329 325 329 338 338 348 305 244 230 194 188 188 190 190 185 206 202 202 201 200 198 201 203 204 205 207 210 209 210 209 208 211 215 219 223 225 228 234
11 7 358 351 344 340 337 336 335 331 341 345 8 95 208 147 172 191 185 184 173 177 196 204 203 200 197 196 198 200 201 202 205 209 209 210 210 209 212 216 220 222 225 231 237
8 8 5 354 347 343 341 338 346 337 338 7 360 180 188 161 158 181 178 189 181 180 207 196 199 200 197 194 196 197 200 200 203 208 210 210 211 210 212 216 219 223 227 233 240
2 2 5 358 352 347 347 346 349 345 344 9 323 185 194 162 190 184 172 193 197 184 176 200 191 198 196 193 195 196 198 199 203 208 210 210 209 211 214 219 222 224 229 236 242
359 359 360 1 357 354 348 346 348 354 340 324 314 227 191 214 135 164 180 189 200 196 193 182 195 192 195 194 194 196 198 199 202 207 209 206 208 210 214 220 223 226 229 235 242
355 354 353 355 355 1 359 350 354 4 6 348 350 250 192 176 201 181 180 191 192 188 187 192 196 191 194 194 195 198 199 201 202 206 208 205 207 210 214 218 222 227 230 234 241
349 347 349 352 354 358 358 1 1 4 19 37 87 195 198 175 178 188 165 190 203 203 205 191 192 190 196 197 194 197 201 203 204 208 206 206 208 211 214 218 220 227 231 236 242
350 351 350 351 355 358 4 5 9 11 3 338 303 293 186 187 176 180 178 174 174 172 197 205 191 192 195 197 196 197 200 203 207 209 209 209 212 212 216 221 224 228 233 238 245
357 360 359 359 359 358 5 14 19 19 32 11 7 76 157 175 178 182 187 187 171 168 177 200 199 191 195 197 197 197 202 202 206 209 212 213 215 215 218 222 225 230 236 242 249
1 3 3 5 5 4 13 23 26 35 58 47 55 109 62 134 184 183 183 183 196 162 171 191 195 190 193 196 198 197 201 205 206 208 210 214 219 218 221 225 229 234 238 243 252
6 7 9 9 11 13 24 30 34 42 58 40 70 69 62 125 155 176 164 172 174 184 180 178 179 187 188 193 197 198 199 201 205 210 214 214 221 219 223 227 232 237 241 249 258
6 9 14 12 14 17 26 33 40 41 37 40 76 99 111 120 147 158 177 160 170 170 165 166 178 180 186 190 194 196 198 198 201 208 214 215 221 223 225 229 236 242 249 256 260
2 10 15 17 16 21 30 30 29 52 55 52 64 94 99 136 160 161 162 166 168 174 178 166 177 182 185 189 192 193 197 202 206 208 212 213 222 224 228 233 239 245 251 255 252
355 8 14 19 19 23 32 38 41 46 55 61 58 86 108 120 156 168 171 190 193 191 182 178 179 182 185 187 189 191 195 199 206 213 215 219 223 225 229 230 230 234 239 243 244
350 1 10 19 22 24 31 35 40 45 48 43 72 81 92 114 137 141 151 143 182 181 183 184 182 187 183 185 185 192 194 197 205 207 210 215 216 215 214 220 221 225 229 237 246
353 356 7 16 21 26 28 35 42 41 47 51 50 75 94 109 117 126 141 152 158 190 190 179 192 192 187 184 184 186 192 198 202 205 207 209 208 202 207 214 220 226 234 243 250
356 357 2 13 19 26 30 29 38 44 37 47 63 70 96 107 123 122 133 149 165 177 182 184 187 188 193 184 184 184 190 197 200 199 200 198 199 201 207 214 220 231 239 244 251
357 358 0 10 19 25 31 31 35 43 48 47 55 81 108 113 124 116 134 143 152 167 183 183 186 186 188 189 185 187 189 194 198 195 195 197 199 204 211 217 226 235 242 250 257
355 358 0 7 16 24 27 32 31 37 47 56 53 60 84 117 134 133 123 118 159 162 176 184 181 182 188 190 187 188 189 190 194 195 195 196 203 207 215 222 230 237 245 253 262
348 356 1 6 11 17 24 29 34 33 41 49 59 62 73 104 135 139 123 95 146 148 172 174 184 181 174 184 188 192 196 194 191 194 195 196 205 214 221 229 237 246 252 259 265
339 351 355 5 9 15 20 27 34 37 38 44 55 56 64 84 115 130 136 124 134 131 164 169 183 176 176 180 186 194 200 196 192 189 191 203 210 220 227 234 243 250 256 260 263
325 341 352 354 5 11 17 25 28 33 37 40 47 61 66 75 97 119 130 138 141 147 150 159 169 177 176 180 185 189 195 198 201 204 210 212 219 223 231 238 246 252 257 262 268